User: anonymous   Login
Location: Unspecified
(0.0000°N, 0.0000°E)
Time: 10:27:05
(UTC+02:00)
Language:

Meteor 1-10 Rocket - Orbit

View from above orbital plane
View from above orbital plane
View from above satellite
View from above satellite

Ground track
Ground track

The orbit data is extracted from the following two-line orbital elements,

1 05732U 71120B   15150.04728063  .00000213  00000-0  12172-3 0  9992
2 05732 081.2503 126.7673 0051256 350.4863 009.5329 14.05885914233661
Epoch (UTC): 30 May 2015 01:08:05
Eccentricity: 0.0051256
inclination: 81.2503°
perigee height: 836 km
apogee height: 910 km
right ascension of ascending node: 126.7673°
argument of perigee: 350.4863°
revolutions per day: 14.05885914
mean anomaly at epoch: 9.5329°
orbit number at epoch: 23366

The dashed part of the orbit path shows where the satellite is in the earth's shadow,  

DLR